This is the latest recevied weather packets stored in our database for station/object K4AGR-13. If no packets are shown the sender has not sent any weather packets the latest 10 day(s).
| Time | Temp. | Humidity | Pressure | Rain* | Wind** | Luminosity | Snow |
|---|---|---|---|---|---|---|---|
| 1777793029 | 10° C | 83% | 1017.9 hPa | 0 mm | - | 0 W/m² | - |
| 1777792726 | 10° C | 80% | 1018.1 hPa | 0 mm | - | 0 W/m² | - |
| 1777792423 | 10.56° C | 78% | 1018 hPa | 0 mm | - | 0 W/m² | - |
| 1777792119 | 10° C | 79% | 1017.9 hPa | 0 mm | - | 0 W/m² | - |
| 1777791817 | 10° C | 80% | 1017.9 hPa | 0 mm | - | 0 W/m² | - |
| 1777791515 | 10° C | 82% | 1017.9 hPa | 0 mm | - | 0 W/m² | - |
| 1777791212 | 10° C | 80% | 1017.7 hPa | 0 mm | - | 0 W/m² | - |
| 1777790909 | 10.56° C | 79% | 1017.9 hPa | 0 mm | - | 0 W/m² | - |
| 1777790607 | 10.56° C | 79% | 1017.9 hPa | 0 mm | - | 0 W/m² | - |
| 1777790303 | 10.56° C | 80% | 1017.8 hPa | 0 mm | - | 0 W/m² | - |
| 1777790002 | 10.56° C | 81% | 1017.8 hPa | 0 mm | - | 0 W/m² | - |
| 1777789700 | 10.56° C | 80% | 1018 hPa | 0 mm | - | 0 W/m² | - |
| 1777789399 | 10.56° C | 79% | 1018 hPa | 0 mm | - | 0 W/m² | - |
| 1777789096 | 10.56° C | 78% | 1017.8 hPa | 0 mm | - | 0 W/m² | - |
| 1777788793 | 10.56° C | 78% | 1018 hPa | 0 mm | - | 0 W/m² | - |
| 1777788489 | 11.11° C | 77% | 1018 hPa | 0 mm | - | 0 W/m² | - |
| 1777788189 | 11.11° C | 76% | 1017.9 hPa | 0 mm | - | 0 W/m² | - |
| 1777787883 | 11.11° C | 76% | 1018 hPa | 0 mm | - | 0 W/m² | - |
| 1777787581 | 11.11° C | 75% | 1017.9 hPa | 0 mm | - | 0 W/m² | - |
| 1777787275 | 11.11° C | 76% | 1017.9 hPa | 0 mm | - | 0 W/m² | - |
| 1777786972 | 11.11° C | 75% | 1017.9 hPa | 0 mm | - | 0 W/m² | - |
| 1777786670 | 11.67° C | 73% | 1017.9 hPa | 0 mm | - | 0 W/m² | - |
| 1777786369 | 11.67° C | 73% | 1017.9 hPa | 0 mm | - | 0 W/m² | - |
| 1777786064 | 11.67° C | 74% | 1017.9 hPa | 0 mm | - | 0 W/m² | - |
| 1777785761 | 11.67° C | 74% | 1017.8 hPa | 0 mm | - | 0 W/m² | - |
* Rain latest hour (hover to see other rain measurements)
** Current wind speed in m/s (hover to see current wind gust speed)